Regional Weather Roundup
Issued by NWS

Home | Current Version | Previous Version | Text Only | Print | Product List | Glossary Off
Versions: 1 2 3 4 5 6 7 8 9 10 11 12 13 14 15 16 17 18 19 20 21 22 23 24 25 26 27 28 29 30 31 32 33 34 35 36 37 38 39 40 41 42 43 44 45 46 47 48 49 50

395
ASUS45 KCYS 271310
RWRWY

WYOMING REGIONAL WEATHER ROUNDUP
NATIONAL WEATHER SERVICE CHEYENNE WY
700 AM MDT TUE JUN 27 2017

NOTE:  "FAIR" INDICATES FEW OR NO CLOUDS BELOW 12,000 FEET
WITH NO SIGNIFICANT WEATHER AND/OR OBSTRUCTIONS TO VISIBILITY.

WYZ001-271400-
YELLOWSTONE NATIONAL PARK

CITY           SKY/WX    TMP DP  RH WIND       PRES   REMARKS
LK YELLOWSTONE   N/A     50  45  83 CALM      30.13R
W YELLOWSTONE  NOT AVBL

$$
WYZ002>013-054>058-071-098>099-271400-
NORTHERN WYOMING

CITY           SKY/WX    TMP DP  RH WIND       PRES   REMARKS
JACKSON        PTSUNNY   54  52  94 E9        30.05F
CODY           PTSUNNY   65  47  52 S16G22    29.86F
GREYBULL       PTSUNNY   68  35  29 NW5       29.82R
WORLAND        CLOUDY    75  47  36 W10       29.84S
SHERIDAN       FAIR      72  43  35 W15       29.78S
BUFFALO        FAIR      70  42  36 VRB3      29.85R
GILLETTE       FAIR      62  52  69 S15G22    29.81R
NEWCASTLE      FAIR      64  52  63 E17G25    29.85F

$$
WYZ014>020-022>026-101>103-271400-
CENTRAL WYOMING

CITY           SKY/WX    TMP DP  RH WIND       PRES   REMARKS
BIG PINEY      FAIR      59  42  53 N10       30.10R
PINEDALE       FAIR      54  43  66 MISG      30.10R
DUBOIS         CLOUDY    55  41  58 NW6       30.11R
LANDER         FAIR      64  42  44 N6        29.95R
RIVERTON       FAIR      70  40  33 NW17G28   29.93R
CASPER         FAIR      70  38  31 SW10G21   29.88F
DOUGLAS        FAIR      63  54  72 SE9       29.89F

$$
WYZ021-027>030-104>119-271400-
SOUTHERN WYOMING

CITY           SKY/WX    TMP DP  RH WIND       PRES   REMARKS
EVANSTON       FAIR      59  39  47 N7        30.09R
KEMMERER         N/A     54  36  50 NW10      30.10R
FORT BRIDGER   FAIR      60  23  24 W13       30.08S
ROCK SPRINGS   FAIR      63  34  33 CALM      30.02S
DIXON          FAIR      58  32  37 CALM      30.07F
RAWLINS        FAIR      63  33  32 CALM      30.04R
SARATOGA       FAIR      61  32  33 S14G25    30.07F
LARAMIE        FAIR      56  44  64 S8        30.08F
CHEYENNE       PTSUNNY   55  53  93 SW6       30.03S FOG
TORRINGTON     FAIR      63  57  81 SE13      29.90F
PINE BLUFFS    FAIR      57  55  94 CALM      29.99F

$$




USA.gov is the U.S. government's official web portal to all federal, state and local government web resources and services.